Location: *
(29.9762°N, 31.1309°E)
Time: 08:45:33
(UTC+00:00)

Daily predictions for brighter satellites

Satellite Brightness Start Highest point End
(mag) Time Altitude Azimuth Time Altitude Azimuth Time Altitude Azimuth
STARLINK-1102 4.2 16:38:46 10° NNW 16:42:42 41° NE 16:46:36 10° ESE
NOAA 11 4.4 16:38:45 10° S 16:44:10 80° WSW 16:49:39 10° NNW
Aureole 2 Rocket 3.2 16:42:56 10° N 16:45:59 30° ENE 16:48:55 10° SE
Cosmos 1602 Rocket 3.9 16:42:39 10° N 16:46:52 44° E 16:51:02 10° SSE
STARLINK-1111 4.1 16:43:41 10° NNW 16:47:40 46° NE 16:51:38 10° ESE
Cosmos 2315 Rocket 4.4 16:44:45 10° S 16:51:02 74° W 16:57:24 10° N
STARLINK-1073 3.9 16:48:37 10° NNW 16:52:39 51° NE 16:56:35 10° ESE
BREEZE-M DEB (TANK) 3.1 16:45:46 10° NW 16:53:33 48° NNE 16:55:57 12° ESE
FREGAT/IRIS 4.4 16:54:23 11° E 16:54:58 12° ENE 16:56:06 10° NE
Cosmos 2084 Rocket 3.5 16:52:33 10° NNW 16:57:02 74° ENE 17:01:29 10° SE
Aureole 3 3.8 16:53:03 10° S 16:57:16 89° E 17:02:44 10° N
STARLINK-1121 3.8 16:53:33 10° NW 16:57:38 58° NE 17:01:23 12° SE
SL-24 R/B - RUBIN 2 4.2 16:53:00 10° S 16:58:00 55° ESE 17:03:43 10° NE
CZ-2D R/B 3.8 16:55:08 10° S 16:58:52 60° W 17:02:38 10° NNW
Cosmos 407 Rocket 4.0 16:54:34 10° SSE 16:59:16 36° E 17:03:56 10° NE
ARGOS Delta rocket 4.3 16:54:27 10° SSE 16:59:26 48° ENE 17:04:37 10° N
Cosmos 1709 Rocket 4.1 16:56:06 10° N 17:02:14 79° W 17:08:19 10° S
STARLINK-1106 3.6 16:58:30 10° NW 17:02:37 66° NE 17:06:10 13° SE
USA 186 3.3 17:00:58 14° ESE 17:02:43 20° ENE 17:05:13 10° NNE
Aureole 1 Rocket 4.5 16:56:51 10° S 17:04:45 55° ESE 17:11:19 10° NNE
Cosmos 2228 3.4 17:02:30 10° SSE 17:06:27 38° E 17:10:27 10° NNE
STARLINK-1112 3.6 17:03:28 10° NW 17:07:36 75° NE 17:10:58 15° SE
Cosmos 1992 Rocket 4.1 17:04:19 10° N 17:09:26 57° ENE 17:14:31 10° SSE
STARLINK-1128 3.5 17:08:27 10° NW 17:12:35 84° NE 17:15:46 17° SE
IRIDIUM 106 4.5 17:08:06 10° N 17:13:10 51° E 17:18:14 10° SSE
ATLAS 5 CENTAUR R/B 1.2 17:09:15 10° SSW 17:13:14 72° ESE 17:17:29 10° NNE
Meteor 1-16 Rocket 4.0 17:11:14 10° S 17:16:33 77° E 17:22:02 10° N
SJ-6B 4.0 17:15:00 20° ESE 17:16:43 26° ENE 17:20:11 10° NNE
Cosmos 1758 Rocket 3.9 17:12:56 10° N 17:17:01 42° E 17:20:31 13° SSE
Cosmos 1606 Rocket 3.6 17:12:47 10° S 17:17:06 59° E 17:21:29 10° NNE
STARLINK-1113 3.6 17:13:26 10° NW 17:17:35 86° SW 17:20:34 18° SE
BREEZE M DEB (TANK) 1.6 17:16:28 10° SW 17:18:42 80° NW 17:22:39 10° NE
SEDSat Delta rocket 3.2 17:13:47 10° W 17:19:08 90° SSE 17:22:04 23° ESE
Cosmos 2074 Rocket 4.2 17:13:11 10° N 17:19:18 51° E 17:25:22 10° SSE
Centaur AC-119 4.4 17:10:14 10° SW 17:21:40 28° S 17:24:24 19° SE
STARLINK-1119 3.7 17:18:23 10° NW 17:22:31 76° SW 17:25:19 20° SE
FALCON 9 R/B 4.3 17:15:35 10° W 17:23:07 73° S 17:53:31 23° ESE
STARLINK-1114 3.8 17:23:22 10° NW 17:27:29 67° SW 17:30:06 21° SSE
SL-8 R/B 4.4 17:26:18 10° NW 17:30:47 39° NE 17:32:43 27° E
STARLINK-1130 (DARKSAT) 4.0 17:28:22 10° NW 17:32:27 59° SW 17:34:53 22° SSE
Cosmos 1943 Rocket 2.7 17:29:13 10° NNW 17:34:41 60° WSW 17:40:10 10° S
MOS 1 4.3 17:30:03 13° SSE 17:34:59 62° ENE 17:40:34 10° N
Meteor 1-21 Rocket 4.3 17:29:51 10° N 17:35:23 78° W 17:40:56 10° S
STARLINK-1084 4.2 17:33:23 10° NW 17:37:25 51° SW 17:39:40 23° SSE
Delta 128 4.1 17:33:28 10° W 17:37:57 51° SSW 17:39:57 31° SE
ISS -3.6 17:36:25 10° NW 17:39:45 67° SW 17:40:34 46° SSE
H-2A R/B 2.0 17:35:34 10° SSE 17:40:51 86° ENE 17:46:01 10° N
STARLINK-1098 4.5 17:38:25 10° NW 17:42:22 45° SW 17:44:27 24° S
Cosmos 1340 Rocket 2.8 17:39:48 15° S 17:43:05 61° E 17:47:04 10° NNE
CZ-2C R/B 2.8 17:39:03 15° SSE 17:43:16 81° ENE 17:48:05 10° N
Cosmos 2369 Rocket 2.4 17:38:26 10° NNW 17:44:03 69° WSW 17:49:07 13° S
Hubble Space Telescope 0.9 17:40:28 10° WSW 17:44:28 52° SSE 17:45:02 48° SE
GPS 2-04 Rocket1 3.2 17:40:59 10° SW 17:44:43 41° SSE 17:44:43 41° SSE
MOS 1 Rocket 3.7 17:43:12 10° NNE 17:48:30 52° E 17:52:22 18° S
CZ-2C R/B 3.7 17:47:01 10° NNE 17:51:42 88° W 17:56:15 10° SSW
SL-08 RB Rocket 3.6 17:53:04 47° SE 17:54:13 68° ENE 17:58:46 10° N
Cosmos 1703 3.1 17:51:00 10° N 17:54:58 77° E 17:55:20 69° SE
Cosmos 1328 3.6 17:51:25 10° N 17:55:25 74° E 17:55:42 70° ESE
Cosmos 2327 Rocket 4.4 17:49:47 10° N 17:56:08 72° E 18:00:09 24° SSE
Cosmos 1908 4.2 17:53:34 10° SSW 17:57:15 47° W 18:01:00 10° N
OAO 1 4.4 17:52:08 10° WSW 17:57:40 90° SSE 17:59:41 41° ENE
Resurs 1-3 4.3 17:59:53 37° NE 17:59:53 37° NE 18:03:12 10° N
USA 234 3.1 17:52:47 10° NE 17:59:20 79° SE 18:05:52 10° SW
Ariane Rocket 3.9 17:57:21 10° S 18:02:13 47° W 18:07:06 10° NNW
ATLAS 2AS CENTAUR R/B 3.1 17:55:22 10° NNW 18:02:22 45° NE 18:03:55 39° E
Cosmos 1437 4.4 18:01:17 10° NNW 18:03:58 30° W 18:04:28 28° WSW
Cosmos 1140 Rocket 3.9 18:02:00 10° SSW 18:07:07 61° WNW 18:12:15 10° N
BREEZE-M DEB (TANK) 4.2 17:59:26 10° SW 18:07:52 63° NW 18:09:18 35° NNE
ATLAS 5 CENTAUR R/B 3.3 18:05:08 10° SW 18:10:22 45° SSE 18:14:18 36° ESE
MetOp-A 4.0 18:14:17 66° SE 18:14:58 78° ENE 18:20:20 10° N
Cosmos 2341 Rocket 4.3 18:09:04 10° N 18:15:00 48° ENE 18:15:00 48° ENE
Cosmos 2058 Rocket 3.8 18:12:45 11° SSW 18:16:53 53° W 18:21:18 10° N
Cosmos 1656 Rocket 3.7 18:12:33 10° NNW 18:18:10 77° WSW 18:19:21 56° S
ARGOS 4.1 18:17:21 17° SSW 18:21:13 46° W 18:26:22 10° NNW
Meteor 1-11 4.2 18:15:44 10° N 18:21:29 85° W 18:22:39 58° S
COSMOS 2455 3.9 18:17:36 10° N 18:22:02 30° NE 18:22:02 30° NE
CZ-2C R/B 2.7 18:19:22 10° N 18:24:31 71° WNW 18:27:35 25° SSW
Resurs 01 Rocket 3.1 18:30:56 29° N 18:30:56 29° N 18:33:11 10° N
Cosmos 2181 Rocket 3.9 18:35:49 77° NE 18:35:49 77° NE 18:41:43 10° N
Cosmos 962 Rocket 4.4 18:36:41 10° N 18:42:31 82° NNW 18:42:31 82° NNW
SPOT 3 Rocket 4.3 18:43:53 47° WSW 18:44:16 48° W 18:49:17 10° NNW
APEX 4.5 18:38:30 10° NNW 18:43:26 59° NW 18:43:26 59° NW
NOSS 3-4 (A) 4.3 19:13:54 10° NW 19:20:34 57° W 19:20:34 57° W
NOSS 3-4 (C) 4.3 19:14:00 10° NW 19:20:39 58° W 19:20:39 58° W
ATLAS 2AS CENTAUR R/B 4.4 19:47:03 10° NW 19:51:23 26° W 19:51:23 26° W
